Location: WHS+Essen
(51.3947°N, 6.9794°E)
Time: 09:43:50
(UTC+02:00)

ISS - Pass Details

Date: 25 May 2019
Orbit: 407 x 419 km, 51.6° (Epoch: 26 June)

Event Time Altitude Azimuth Distance (km) Brightness Sun altitude
Rises 01:44:21 0° 284° (WNW) 2,367 0.2 -17.7°
Reaches altitude 10° 01:46:38 10° 272° (W) 1,502 -1.0 -17.6°
Enters shadow 01:47:45 17° 259° (W) 1,135 -1.7 -17.6°
